When you browse on this site, cookies collect data to enhance your experience and personalize the content and advertising you see.
Visit our Privacy Policy to learn more. By continuing to use the site, you agree to this use of cookies and data.
  • Em Portugal
  • Lista de países
  • Para 7 dias
  • Temperatura da água
  • Mapas de satélite
  • Mapa do tempo
  • Widgets de tempo
  • user-avatar
    Iniciar Sessão

    Previsão horária em Sevan

    Hoje, 22 Maio, Quarta-feira

    Tempo Temperatura Precipitação Vento Pressão Humidade
    00:00 +12°C° 0 mm 2 m/s 643 mmHg 81%
    01:00 +10°C° 0 mm 2 m/s 643 mmHg 81%
    02:00 +10°C° 0 mm 2 m/s 643 mmHg 82%
    03:00 +10°C° 0 mm 2 m/s 643 mmHg 82%
    04:00 +11°C° 0 mm 1 m/s 643 mmHg 80%
    05:00 +12°C° 0 mm 1 m/s 643 mmHg 77%
    06:00 +12°C° 0 mm 0 m/s 644 mmHg 75%
    07:00 +14°C° 0 mm 1 m/s 644 mmHg 68%
    08:00 +16°C° 0 mm 2 m/s 644 mmHg 62%
    09:00 +18°C° 0 mm 2 m/s 644 mmHg 55%
    10:00 +19°C° 0 mm 2 m/s 644 mmHg 52%
    11:00 +20°C° 0 mm 3 m/s 644 mmHg 49%
    12:00 +21°C° 0 mm 3 m/s 644 mmHg 46%
    13:00 +21°C° 0.4 mm 3 m/s 644 mmHg 46%
    14:00 +21°C° 0.4 mm 3 m/s 644 mmHg 45%
    15:00 +21°C° 0.4 mm 2 m/s 643 mmHg 45%
    16:00 +20°C° 1.2 mm 2 m/s 643 mmHg 53%
    17:00 +19°C° 1.2 mm 2 m/s 643 mmHg 61%
    18:00 +18°C° 1.2 mm 2 m/s 642 mmHg 69%
    19:00 +17°C° 0.4 mm 2 m/s 642 mmHg 72%
    20:00 +16°C° 0.4 mm 2 m/s 643 mmHg 75%
    21:00 +15°C° 0.4 mm 2 m/s 643 mmHg 78%
    22:00 +14°C° 0.1 mm 2 m/s 642 mmHg 79%
    23:00 +14°C° 0.1 mm 1 m/s 642 mmHg 80%

    Amanhã, 23 Maio, Quinta-feira

    Tempo Temperatura Precipitação Vento Pressão Humidade
    00:00 +13°C° 0.1 mm 1 m/s 642 mmHg 80%
    01:00 +13°C° 0 mm 1 m/s 642 mmHg 79%
    02:00 +12°C° 0 mm 1 m/s 641 mmHg 78%
    03:00 +12°C° 0 mm 1 m/s 641 mmHg 76%
    04:00 +12°C° 0 mm 1 m/s 641 mmHg 73%
    05:00 +13°C° 0 mm 1 m/s 641 mmHg 71%
    06:00 +14°C° 0 mm 1 m/s 641 mmHg 68%
    07:00 +15°C° 0 mm 2 m/s 642 mmHg 61%
    08:00 +17°C° 0 mm 2 m/s 642 mmHg 55%
    09:00 +18°C° 0 mm 3 m/s 642 mmHg 48%
    10:00 +19°C° 0.1 mm 3 m/s 642 mmHg 48%
    11:00 +20°C° 0.1 mm 3 m/s 642 mmHg 48%
    12:00 +20°C° 0.1 mm 3 m/s 641 mmHg 48%
    13:00 +20°C° 0.4 mm 3 m/s 641 mmHg 49%
    14:00 +20°C° 0.4 mm 2 m/s 641 mmHg 50%
    15:00 +20°C° 0.4 mm 2 m/s 641 mmHg 51%
    16:00 +20°C° 0.7 mm 2 m/s 641 mmHg 55%
    17:00 +20°C° 0.7 mm 1 m/s 641 mmHg 59%
    18:00 +19°C° 0.7 mm 1 m/s 640 mmHg 63%
    19:00 +18°C° 0.2 mm 1 m/s 641 mmHg 66%
    20:00 +15°C° 0.2 mm 1 m/s 641 mmHg 69%
    21:00 +14°C° 0.2 mm 1 m/s 641 mmHg 71%
    22:00 +14°C° 0.1 mm 1 m/s 641 mmHg 72%
    23:00 +13°C° 0.1 mm 1 m/s 641 mmHg 72%

    Depois de amanhã, 24 Maio, Sexta-feira

    Tempo Temperatura Precipitação Vento Pressão Humidade
    00:00 +13°C° 0.1 mm 1 m/s 641 mmHg 73%
    01:00 +12°C° 0 mm 1 m/s 641 mmHg 73%
    02:00 +12°C° 0 mm 1 m/s 641 mmHg 74%
    03:00 +12°C° 0 mm 1 m/s 641 mmHg 75%
    04:00 +12°C° 0 mm 1 m/s 641 mmHg 73%
    05:00 +13°C° 0 mm 1 m/s 641 mmHg 71%
    06:00 +14°C° 0 mm 1 m/s 642 mmHg 69%
    07:00 +16°C° 0 mm 2 m/s 642 mmHg 64%
    08:00 +17°C° 0 mm 2 m/s 642 mmHg 58%
    09:00 +19°C° 0 mm 3 m/s 643 mmHg 53%
    10:00 +20°C° 0 mm 3 m/s 643 mmHg 50%
    11:00 +21°C° 0 mm 3 m/s 643 mmHg 48%
    12:00 +22°C° 0 mm 3 m/s 643 mmHg 45%
    13:00 +22°C° 0.2 mm 3 m/s 643 mmHg 45%
    14:00 +24°C° 0.2 mm 3 m/s 642 mmHg 46%
    15:00 +24°C° 0.2 mm 3 m/s 642 mmHg 46%
    16:00 +22°C° 0.9 mm 3 m/s 642 mmHg 50%
    17:00 +21°C° 0.9 mm 2 m/s 642 mmHg 55%
    18:00 +20°C° 0.9 mm 2 m/s 642 mmHg 59%
    19:00 +19°C° 0.6 mm 2 m/s 642 mmHg 62%
    20:00 +18°C° 0.6 mm 2 m/s 642 mmHg 65%
    21:00 +16°C° 0.6 mm 1 m/s 643 mmHg 68%
    22:00 +16°C° 0.1 mm 1 m/s 643 mmHg 68%
    23:00 +15°C° 0.1 mm 1 m/s 643 mmHg 68%

    25 Maio, Sábado

    Tempo Temperatura Precipitação Vento Pressão Humidade
    00:00 +15°C° 0.1 mm 1 m/s 643 mmHg 68%
    01:00 +15°C° 0.3 mm 1 m/s 643 mmHg 67%
    02:00 +15°C° 0.3 mm 2 m/s 643 mmHg 67%
    03:00 +15°C° 0.3 mm 2 m/s 643 mmHg 66%
    04:00 +16°C° 0.1 mm 2 m/s 643 mmHg 66%
    05:00 +16°C° 0.1 mm 2 m/s 643 mmHg 65%
    06:00 +16°C° 0.1 mm 2 m/s 643 mmHg 64%
    07:00 +18°C° 0 mm 2 m/s 644 mmHg 57%
    08:00 +20°C° 0 mm 3 m/s 644 mmHg 50%
    09:00 +22°C° 0 mm 3 m/s 645 mmHg 43%
    10:00 +23°C° 0 mm 4 m/s 644 mmHg 41%
    11:00 +25°C° 0 mm 4 m/s 644 mmHg 39%
    12:00 +26°C° 0 mm 4 m/s 644 mmHg 37%
    13:00 +27°C° 0 mm 5 m/s 644 mmHg 36%
    14:00 +27°C° 0 mm 5 m/s 643 mmHg 34%
    15:00 +27°C° 0 mm 5 m/s 643 mmHg 33%
    16:00 +26°C° 0.2 mm 4 m/s 643 mmHg 39%
    17:00 +25°C° 0.2 mm 3 m/s 643 mmHg 44%
    18:00 +23°C° 0.2 mm 2 m/s 643 mmHg 50%
    19:00 +21°C° 0.5 mm 2 m/s 643 mmHg 53%
    20:00 +19°C° 0.5 mm 3 m/s 643 mmHg 56%
    21:00 +18°C° 0.5 mm 3 m/s 643 mmHg 59%
    22:00 +17°C° 0 mm 3 m/s 642 mmHg 58%
    23:00 +17°C° 0 mm 3 m/s 642 mmHg 57%

    26 Maio, Domingo

    Tempo Temperatura Precipitação Vento Pressão Humidade
    00:00 +16°C° 0 mm 2 m/s 641 mmHg 56%
    01:00 +16°C° 0 mm 2 m/s 641 mmHg 56%
    02:00 +15°C° 0 mm 2 m/s 641 mmHg 57%
    03:00 +15°C° 0 mm 2 m/s 640 mmHg 57%
    04:00 +16°C° 0.1 mm 2 m/s 640 mmHg 58%
    05:00 +16°C° 0.1 mm 2 m/s 641 mmHg 59%
    06:00 +17°C° 0.1 mm 2 m/s 641 mmHg 60%
    07:00 +19°C° 0 mm 2 m/s 641 mmHg 53%
    08:00 +21°C° 0 mm 2 m/s 642 mmHg 46%
    09:00 +24°C° 0 mm 3 m/s 642 mmHg 39%
    10:00 +25°C° 0 mm 3 m/s 642 mmHg 37%
    11:00 +26°C° 0 mm 4 m/s 642 mmHg 35%
    12:00 +26°C° 0 mm 5 m/s 642 mmHg 34%
    13:00 +27°C° 0 mm 5 m/s 642 mmHg 32%
    14:00 +27°C° 0 mm 5 m/s 641 mmHg 31%
    15:00 +27°C° 0 mm 5 m/s 641 mmHg 29%
    16:00 +26°C° 0 mm 4 m/s 641 mmHg 34%
    17:00 +25°C° 0 mm 3 m/s 641 mmHg 38%
    18:00 +24°C° 0 mm 1 m/s 641 mmHg 42%
    19:00 +21°C° 0.1 mm 2 m/s 641 mmHg 50%
    20:00 +19°C° 0.1 mm 3 m/s 641 mmHg 59%
    21:00 +15°C° 0.1 mm 4 m/s 641 mmHg 67%
    22:00 +14°C° 0.1 mm 3 m/s 641 mmHg 70%
    23:00 +14°C° 0.1 mm 3 m/s 642 mmHg 73%

    27 Maio, Segunda-feira

    Tempo Temperatura Precipitação Vento Pressão Humidade
    00:00 +13°C° 0.1 mm 3 m/s 642 mmHg 76%
    01:00 +13°C° 0 mm 3 m/s 642 mmHg 75%
    02:00 +13°C° 0 mm 2 m/s 641 mmHg 75%
    03:00 +13°C° 0 mm 2 m/s 641 mmHg 75%
    04:00 +14°C° 0 mm 2 m/s 642 mmHg 71%
    05:00 +15°C° 0 mm 2 m/s 642 mmHg 68%
    06:00 +15°C° 0 mm 1 m/s 643 mmHg 64%
    07:00 +18°C° 0 mm 1 m/s 643 mmHg 57%
    08:00 +19°C° 0 mm 2 m/s 644 mmHg 50%
    09:00 +21°C° 0 mm 2 m/s 644 mmHg 42%
    10:00 +23°C° 0 mm 2 m/s 644 mmHg 39%
    11:00 +24°C° 0 mm 2 m/s 644 mmHg 35%
    12:00 +25°C° 0 mm 3 m/s 644 mmHg 32%
    13:00 +25°C° 0 mm 2 m/s 644 mmHg 31%
    14:00 +25°C° 0 mm 2 m/s 644 mmHg 31%
    15:00 +26°C° 0 mm 2 m/s 644 mmHg 30%
    16:00 +25°C° 0.2 mm 2 m/s 644 mmHg 35%
    17:00 +24°C° 0.2 mm 1 m/s 644 mmHg 41%
    18:00 +23°C° 0.2 mm 1 m/s 644 mmHg 46%
    19:00 +20°C° 0.2 mm 2 m/s 644 mmHg 53%
    20:00 +18°C° 0.2 mm 3 m/s 644 mmHg 60%
    21:00 +17°C° 0.2 mm 3 m/s 644 mmHg 66%
    22:00 +16°C° 0.1 mm 3 m/s 644 mmHg 68%
    23:00 +16°C° 0.1 mm 3 m/s 644 mmHg 70%
    Mostrar mais